Home   Weather   Grand Rapids   Past weeks
Flag for USA

Past Weather in Grand Rapids, Michigan, USA — Yesterday and Last 2 Weeks

Now
82 °F

Partly sunny.


Feels Like: 87 °F
Forecast: 90 / 78 °F
Wind: 12 mph from West

Location: Kent County International Airport

Current Time: Jul 18, 2019 at 9:50:01 pm

Latest Report: Jul 18, 2019 at 8:53 pm


Visibility: 10 mi

Pressure: 29.80 "Hg

Humidity: 72%

Dew Point: 72 °F

Location of Grand RapidsLocation

Past Weather in Grand Rapids — Graph

°F

Grand Rapids Temperature Yesterday

Maximum temperature yesterday: 89 °F (at 4:53 pm)
Minimum temperature yesterday: 72 °F (at 5:38 am)
Average temperature yesterday: 79 °F

High & Low Weather Summary for the Past Weeks

 TemperatureHumidityPressure
High90 °F (Jul 15, 4:53 pm)97% (Jul 17, 4:16 am)30.18 "Hg (Jul 17, 4:16 am)
Low57 °F (Jul 8, 6:53 am)35% (Jul 14, 5:53 pm)29.75 "Hg (Jul 18, 3:53 pm)
Average76 °F69%29.97 "Hg
* Reported Jul 3 7:53 pm — Jul 18 7:53 pm, Grand Rapids. Weather by CustomWeather, © 2019

Note: Actual official high and low records may vary slightly from our data, if they occured in-between our weather recording intervals... More about our weather records

Advertising

Grand Rapids Weather History for the Previous 24 Hours

Scroll right to see more
 ConditionsComfort  
Time TempWeatherWind HumidityBarometerVisibility
7:53 pm
Thu, Jul 18
84 °FPartly sunny.16 mph65%29.78 "Hg10 mi
6:53 pm86 °FPassing clouds.15 mph61%29.77 "Hg10 mi
5:53 pm86 °FScattered clouds.9 mph63%29.76 "Hg10 mi
4:53 pm84 °FScattered clouds.16 mph65%29.75 "Hg10 mi
3:53 pm80 °FPartly sunny.13 mph71%29.75 "Hg10 mi
2:53 pm76 °FPartly sunny.15 mph85%29.76 "Hg10 mi
1:53 pm75 °FMore clouds than sun.13 mph88%29.86 "Hg10 mi
1:14 pm74 °FLight rain. Fog.10 mph91%29.94 "Hg6 mi
12:53 pm73 °FThunderstorms. Mostly cloudy.13 mph88%29.95 "Hg7 mi
12:43 pm73 °FThunderstorms. Fog.9 mph90%29.97 "Hg4 mi
12:31 pm75 °FStrong thunderstorms. Fog.17 mph89%29.97 "Hg1 mi
11:53 am78 °FCloudy.12 mph79%29.91 "Hg10 mi
10:53 am79 °FCloudy.14 mph79%29.90 "Hg10 mi
9:53 am78 °FMore clouds than sun.6 mph82%29.89 "Hg10 mi
8:53 am76 °FMostly cloudy.8 mph88%29.88 "Hg8 mi
7:53 am76 °FPartly sunny.9 mph85%29.88 "Hg8 mi
6:53 am73 °FPartly sunny.8 mph90%29.88 "Hg7 mi
5:53 am72 °FPassing clouds.8 mph91%29.88 "Hg10 mi
4:53 am71 °FClear.5 mph90%29.88 "Hg10 mi
3:53 am72 °FClear.6 mph84%29.88 "Hg10 mi
2:53 am72 °FClear.6 mph87%29.89 "Hg10 mi
1:53 am73 °FClear.6 mph84%29.90 "Hg10 mi
12:53 am75 °FClear.6 mph82%29.92 "Hg10 mi
11:53 pm
Wed, Jul 17
78 °FPassing clouds.5 mph74%29.91 "Hg10 mi
10:53 pm78 °FPassing clouds.3 mph79%29.90 "Hg10 mi
9:53 pm80 °FPassing clouds.3 mph74%29.88 "Hg10 mi
Weather by CustomWeather, © 2019

See weather overview